Flag for Norway Weather past 2 weeks in Mosjøen, Norway

Now
51 °F

Cool.


Feels Like: 51 °F
Forecast: 42 / 64 °F
Wind: 1 mph from Southeast

Location: Mosjoen Kjaerstad

Current Time: Aug 23, 2014 at 8:42:48 AM

Latest Report: Aug 23, 2014 at 8:00 AM


Visibility: N/A

Pressure: 29.70 "Hg

Humidity: 96%

Dew point: 50 °F

Location of MosjøenLocation

Historic Weather in Mosjøen — Graph

°F

Mosjøen temperature yesterday

Maximum temperature yesterday: 60 °F (at 11:00 AM)
Minimum temperature yesterday: 51 °F (at 4:00 AM)
Average temperature yesterday: 55 °F

Past Weeks' High & Low Weather Summary

 TemperatureHumidityPressure
High78 °F (Aug 9, 6:00 PM)97% (Aug 8, 7:00 AM)29.94 "Hg (Aug 8, 7:00 AM)
Low36 °F (Aug 17, 5:00 AM)29% (Aug 12, 5:00 PM)29.26 "Hg (Aug 18, 11:00 PM)
Average57 °F76%29.58 "Hg
* Reported Aug 8 7:00 AM — Aug 23 7:00 AM, Mosjøen, Weather by CustomWeather, © 2014

Note: Actual official high and low records may vary slightly from our data, if they occured in-between our weather recording intervals... More about our weather records

Advertising

Mosjøen weather history for previous 24 hours

 ConditionsComfort  
Time TempWeatherWind HumidityBarometerVisibility
7:00 AM
Aug 23
50 °FCool.1 mph96%29.70 "HgN/A
6:00 AM50 °FCool.1 mph96%29.70 "HgN/A
5:00 AM50 °FCool.1 mph96%29.69 "HgN/A
4:00 AM50 °FCool.1 mph96%29.70 "HgN/A
3:00 AM49 °FCool.1 mph96%29.69 "HgN/A
2:00 AM50 °FCool.1 mph95%29.69 "HgN/A
1:00 AM51 °FCool.1 mph95%29.69 "HgN/A
12:00 AM52 °FCool.1 mph95%29.70 "HgN/A
11:00 PM
Aug 22
52 °FCool.1 mph94%29.69 "HgN/A
10:00 PM54 °FCool.1 mph93%29.69 "HgN/A
9:00 PM55 °FCool.1 mph92%29.68 "HgN/A
8:00 PM55 °FCool.1 mph89%29.68 "HgN/A
7:00 PM57 °FCool.2 mph86%29.67 "HgN/A
6:00 PM57 °FCool.2 mph86%29.68 "HgN/A
5:00 PM57 °FCool.2 mph89%29.68 "HgN/A
4:00 PM56 °FCool.2 mph88%29.68 "HgN/A
3:00 PM57 °FCool.2 mph91%29.68 "HgN/A
2:00 PM55 °FCool.3 mph90%29.68 "HgN/A
1:00 PM59 °FCool.1 mph80%29.67 "HgN/A
12:00 PM58 °FCool.3 mph79%29.67 "HgN/A
11:00 AM60 °FCool.1 mph75%29.66 "HgN/A
10:00 AM57 °FCool.1 mph88%29.67 "HgN/A
9:00 AM54 °FCool.1 mph96%29.67 "HgN/A
8:00 AM53 °FCool.1 mph96%29.66 "HgN/A
Weather by CustomWeather, © 2014

See weather overviewHow to use our weather pages